Temp_Advection
nan nan nan nan nan nan nan nan nan nan nan nan nan nan nan nan nan nan nan nan nan nan nan nan nan nan nan nan nan nan nan nan nan
nan -0 -0 -0 0 0 0 0 0 0 0 0 0 0 0 0 0 0 0 0 0 0 0 0 0 0 0 0 0 0 0 0 nan
nan 0 -0 0 0 0 0 0 0 0 0 0 0 0 0 0 0 0 0 0 0 0 0 0 0 0 0 0 0 0 0 -0 nan
nan -0 0 -0 0 0 0 0 0 0 0 0 0 0 0 0 0 0 0 0 0 0 0 0 0 0 0 0 0 0 0 0 nan
nan 0 0 0 0 0 0 0 0 0 0 0 0 0 0 0 0 0 0 0 -0 0 -0 0 0 0 0 0 0 0 0 0 nan
nan -0 -0 0 -0 0 0 0 0 0 0 0 0 0 0 0 0 0 0 0 0 -0 -0 0 0 0 0 0 0 0 1 0 nan
nan -0 0 -0 0 0 0 0 0 0 0 0 0 -0 0 0 0 0 0 0 0 -0 -0 0 0 0 0 0 -0 0 0 0 nan
nan -0 -0 0 0 -0 0 0 0 0 0 0 -0 0 0 0 0 0 0 0 0 -0 -0 0 0 0 0 -0 -0 0 0 0 nan
nan 0 0 0 -0 -0 0 0 -0 0 0 0 0 0 0 0 0 0 0 0 0 0 -0 -0 0 0 0 -0 0 0 -0 0 nan
nan 0 0 0 0 0 0 0 0 0 -0 0 0 0 0 0 0 0 0 0 -0 0 0 -0 0 0 -0 0 0 0 0 0 nan
nan 0 0 0 0 0 0 0 -0 0 0 0 0 0 0 0 0 0 0 -0 0 -0 0 0 0 0 0 0 0 -0 0 0 nan
nan 0 0 0 0 0 0 -0 0 -0 -0 0 0 0 1 -0 -0 1 0 0 0 -0 -0 0 0 -0 0 0 -0 -0 0 -0 nan
nan 0 0 -0 -0 -0 -0 -0 -0 -0 0 0 0 0 0 -0 1 0 -0 -1 -0 0 0 0 0 0 -0 -0 -0 0 0 0 nan
nan -0 -0 -0 -0 -0 0 -0 -0 -0 -0 -0 -0 0 0 0 -0 0 0 -0 0 -0 -0 1 0 -0 0 -0 0 0 0 0 nan
nan -0 -0 -0 -0 -0 -0 -0 0 0 0 -0 -0 -0 -0 -0 1 -0 -1 0 -0 -1 0 1 0 0 -0 0 0 0 0 -0 nan
nan -0 -1 -1 -1 -1 -0 -0 -0 0 0 -0 -0 -1 -0 0 -2 -1 1 0 -0 -0 -0 0 0 0 0 -0 0 0 -0 0 nan
nan -0 -0 -0 -1 -0 -0 -0 -0 0 0 -0 -0 -0 -0 -1 -1 0 1 0 -0 -0 1 0 -1 0 0 0 0 -0 1 0 nan
nan -1 -1 -1 -1 -0 -0 -0 -0 -0 -0 -0 -0 -0 -0 -0 -1 0 0 0 0 -0 -0 -1 0 1 -0 -0 0 -0 -0 -0 nan
nan -0 -0 -0 -0 -1 -1 -0 -0 -0 -0 0 -0 -0 -0 -0 -0 0 -0 -0 -0 -0 -1 -0 0 -0 -1 0 0 -0 0 -0 nan
nan nan nan nan nan nan nan nan nan nan nan nan nan nan nan nan nan nan nan nan nan nan nan nan nan nan nan nan nan nan nan nan nan
Wind_Speed
11 11 8 6 9 11 9 8 8 10 12 13 14 15 14 14 14 16 15 14 12 10 8 7 7 9 12 12 10 8 7 10 12
13 12 10 8 7 11 11 9 8 9 11 14 15 15 14 15 15 14 13 12 8 7 7 6 6 9 15 13 10 9 10 13 10
14 14 13 12 10 11 12 11 9 10 12 14 16 15 16 15 15 13 10 8 7 7 7 7 7 12 16 13 9 14 14 12 9
16 16 15 12 12 13 14 12 10 11 14 15 17 17 17 17 15 12 10 7 6 6 7 8 11 13 15 13 9 15 16 13 9
19 17 17 15 14 14 15 15 13 13 16 17 18 18 19 18 17 14 11 8 8 7 6 8 14 16 17 13 16 15 17 15 14
19 18 17 16 16 16 15 16 16 16 16 19 20 20 20 20 19 16 13 10 10 10 8 10 16 18 18 15 14 20 21 17 15
21 20 19 18 17 16 16 17 19 19 19 20 22 23 22 22 21 19 17 15 14 13 10 11 17 19 19 16 13 20 20 19 17
24 23 19 19 18 17 18 18 21 23 24 24 24 24 25 24 23 21 20 20 17 16 12 14 19 21 23 22 11 17 20 20 20
20 22 20 21 16 18 19 20 23 25 28 27 26 24 26 27 25 23 23 22 21 19 17 17 22 23 25 23 17 21 22 23 18
19 20 18 17 18 20 19 19 23 25 28 29 30 28 26 27 28 28 27 25 24 22 22 22 22 27 27 26 23 20 27 25 22
18 18 16 16 19 18 17 21 23 24 27 30 32 33 31 29 29 29 32 29 27 26 26 26 25 27 30 29 26 21 31 29 25
16 17 16 14 15 16 20 19 20 23 25 28 30 31 36 35 31 30 32 30 32 31 29 31 29 28 31 30 27 25 30 31 30
11 16 13 10 11 12 15 16 18 19 20 24 25 31 35 31 33 33 32 32 35 36 32 34 33 29 32 34 29 27 31 33 32
5 5 6 10 12 13 14 13 14 14 16 19 24 28 32 33 36 34 31 33 34 37 37 37 36 33 31 36 34 30 33 34 34
12 12 12 14 15 17 18 19 21 18 20 19 19 19 26 27 33 34 34 37 34 32 38 39 40 38 35 35 39 34 35 36 38
17 15 19 20 19 17 18 19 20 20 22 23 21 24 25 27 35 37 39 41 41 37 42 42 41 42 39 39 37 39 39 42 40
12 17 15 16 18 13 12 12 15 17 16 18 20 16 18 21 21 30 32 35 40 41 45 44 47 45 41 40 38 36 37 40 48
13 11 12 15 17 10 9 9 9 12 12 10 11 7 8 10 16 19 21 25 31 34 37 40 40 50 41 38 39 37 36 36 36
10 10 10 10 11 11 12 9 7 10 14 11 13 14 13 8 9 8 10 14 15 18 22 33 37 42 46 39 41 40 38 37 38
8 8 8 9 8 7 6 7 8 7 6 10 9 12 14 16 12 13 18 16 13 15 21 22 27 33 46 49 47 43 40 37 39
Wind_Direction
260 261 272 275 227 215 210 205 192 192 189 183 181 179 179 175 175 170 167 165 163 168 180 188 184 168 167 182 181 174 161 148 157
251 256 253 252 240 226 212 215 202 191 191 191 185 184 184 181 181 179 175 169 172 179 185 190 192 177 175 188 179 169 146 153 155
240 249 252 242 230 227 225 221 215 202 194 193 189 188 187 184 186 189 200 216 224 210 201 202 197 171 183 192 176 154 158 170 163
233 246 248 242 236 232 232 228 230 219 206 203 195 190 188 188 194 201 208 222 238 219 211 212 188 178 189 190 185 166 169 184 193
231 237 243 245 244 238 232 233 230 224 214 210 208 202 197 198 202 208 210 221 240 225 236 219 183 184 188 184 169 174 182 187 202
231 228 240 245 243 243 237 234 230 223 217 216 216 216 213 214 213 216 216 226 237 245 266 217 190 197 198 205 206 189 199 197 205
235 234 232 241 240 243 238 234 235 227 222 219 223 225 223 226 225 227 231 229 232 251 260 214 202 204 204 205 210 207 205 218 209
238 241 241 247 244 242 247 241 233 230 229 226 227 229 230 231 232 235 236 238 238 247 243 223 207 204 204 218 230 208 212 215 221
242 242 243 238 248 247 246 246 247 239 237 234 233 234 236 236 238 241 240 241 244 242 245 229 221 213 207 230 246 213 211 217 226
246 240 241 239 245 248 246 246 249 248 248 242 236 236 237 237 240 245 243 244 247 244 237 238 228 215 218 230 237 226 213 224 225
247 245 249 247 245 246 251 248 249 247 249 250 247 239 238 239 241 244 243 243 244 244 247 239 235 227 227 229 235 232 210 217 222
251 255 250 255 249 249 250 255 255 256 254 253 253 257 249 236 243 245 244 245 243 245 247 248 239 238 229 229 232 227 215 218 224
246 254 260 268 270 275 268 265 260 260 262 265 265 258 254 250 235 247 246 247 243 242 243 248 246 241 236 232 235 228 219 221 223
322 311 298 286 281 278 279 282 274 279 277 277 274 265 258 246 250 246 246 244 244 251 247 247 248 247 242 233 235 231 224 223 224
319 308 297 293 289 285 281 280 275 271 280 275 288 279 262 250 257 250 253 249 246 246 239 243 249 248 246 240 236 236 233 227 224
328 327 311 302 301 293 281 276 273 266 262 276 283 280 271 259 252 258 261 256 250 248 245 243 251 246 247 242 238 237 236 238 225
311 308 320 333 327 308 292 280 273 272 264 264 265 278 278 275 265 255 256 256 259 265 252 247 252 250 245 241 241 241 238 242 222
351 342 335 333 322 327 324 310 308 300 280 277 261 267 258 281 277 271 260 271 270 267 267 264 258 257 239 243 245 247 245 247 243
343 350 353 347 342 356 351 341 327 300 298 290 264 260 268 280 268 252 269 281 282 289 291 273 263 262 246 246 245 251 246 246 243
328 333 334 333 342 357 11 354 356 349 321 300 283 261 266 260 262 281 280 277 289 298 278 267 265 265 263 264 236 239 243 248 245
Height
1530 1531 1531 1530 1529 1531 1531 1531 1531 1531 1533 1534 1536 1537 1539 1540 1541 1543 1544 1545 1546 1548 1549 1550 1551 1552 1553 1553 1554 1555 1555 1556 1556
1527 1529 1529 1529 1529 1530 1530 1531 1531 1532 1533 1534 1535 1537 1539 1540 1542 1543 1545 1545 1546 1548 1549 1549 1550 1551 1553 1553 1555 1555 1556 1557 1558
1524 1526 1527 1527 1527 1528 1530 1530 1530 1531 1532 1534 1535 1537 1538 1540 1542 1543 1545 1545 1546 1547 1548 1549 1549 1550 1552 1553 1555 1556 1557 1557 1560
1521 1522 1524 1524 1525 1527 1528 1528 1530 1531 1532 1534 1535 1536 1538 1539 1541 1542 1544 1545 1545 1546 1547 1548 1548 1550 1551 1553 1555 1556 1557 1558 1560
1516 1518 1520 1522 1523 1524 1525 1527 1528 1530 1531 1532 1534 1536 1537 1539 1539 1541 1543 1544 1545 1545 1546 1547 1548 1550 1550 1552 1555 1557 1558 1559 1560
1514 1515 1518 1520 1520 1522 1523 1525 1527 1528 1529 1530 1532 1534 1535 1537 1538 1539 1541 1543 1544 1544 1544 1546 1547 1549 1551 1552 1554 1555 1557 1558 1559
1511 1512 1513 1515 1516 1518 1521 1522 1525 1526 1527 1528 1529 1531 1533 1534 1535 1537 1539 1541 1542 1542 1543 1544 1545 1547 1549 1550 1552 1553 1556 1557 1558
1507 1509 1509 1510 1513 1513 1517 1519 1521 1523 1524 1524 1525 1527 1529 1530 1532 1534 1536 1538 1540 1541 1541 1542 1543 1544 1546 1548 1550 1552 1554 1555 1557
1504 1505 1507 1508 1507 1509 1513 1515 1517 1518 1520 1521 1522 1523 1525 1527 1529 1531 1533 1535 1537 1538 1538 1539 1540 1542 1543 1544 1548 1549 1550 1552 1554
1502 1501 1502 1502 1503 1505 1507 1509 1512 1514 1515 1516 1517 1519 1520 1522 1525 1527 1529 1531 1533 1535 1536 1536 1538 1539 1540 1541 1543 1545 1547 1549 1552
1500 1499 1499 1499 1500 1502 1502 1504 1507 1508 1510 1511 1513 1514 1515 1518 1520 1522 1525 1526 1529 1531 1532 1533 1534 1536 1537 1538 1539 1541 1542 1544 1547
1498 1497 1498 1498 1498 1498 1499 1500 1500 1502 1503 1505 1507 1509 1509 1507 1515 1518 1520 1520 1523 1526 1527 1528 1530 1531 1533 1534 1535 1537 1538 1540 1542
1495 1496 1495 1495 1495 1495 1496 1497 1496 1497 1498 1499 1500 1502 1504 1506 1509 1511 1512 1515 1517 1520 1521 1522 1524 1526 1528 1530 1530 1532 1533 1536 1538
1494 1494 1493 1493 1493 1493 1492 1494 1493 1493 1493 1494 1495 1495 1497 1498 1503 1505 1506 1508 1511 1513 1511 1516 1519 1520 1522 1524 1525 1526 1528 1530 1533
1494 1493 1493 1491 1490 1490 1489 1489 1490 1491 1491 1490 1490 1490 1491 1491 1494 1494 1500 1503 1504 1504 1506 1509 1512 1514 1516 1517 1519 1521 1522 1524 1526
1491 1491 1490 1488 1487 1485 1485 1484 1485 1486 1486 1486 1486 1485 1485 1484 1486 1488 1492 1493 1496 1499 1499 1500 1503 1506 1508 1510 1512 1514 1515 1516 1518
1490 1489 1487 1485 1484 1482 1480 1480 1480 1480 1481 1481 1482 1480 1481 1479 1480 1481 1483 1485 1487 1487 1491 1492 1494 1497 1499 1502 1504 1507 1509 1512 1492
1490 1488 1485 1483 1482 1479 1479 1478 1476 1476 1477 1477 1478 1477 1476 1474 1474 1475 1478 1478 1476 1478 1481 1482 1484 1486 1487 1493 1497 1499 1502 1503 1505
1488 1486 1485 1483 1480 1479 1478 1476 1474 1474 1473 1474 1474 1473 1473 1472 1471 1470 1472 1471 1471 1473 1473 1474 1475 1480 1479 1483 1487 1492 1495 1497 1498
1488 1487 1485 1483 1481 1478 1477 1476 1474 1472 1471 1470 1468 1468 1469 1468 1466 1465 1467 1467 1469 1468 1469 1468 1468 1469 1473 1472 1476 1480 1485 1490 1492